TimeCDT,TemperatureF,Dew PointF,Humidity,Sea Level PressureIn,VisibilityMPH,Wind Direction,Wind SpeedMPH,Gust SpeedMPH,PrecipitationIn,Events,Conditions,WindDirDegrees,DateUTC
12:15 AM,43.7,28.4,55,29.93,10.0,SW,12.7,-,N/A,,Clear,220,2012-10-08 05:15:00
12:35 AM,43.7,28.9,56,29.93,10.0,SW,12.7,-,N/A,,Clear,220,2012-10-08 05:35:00
12:55 AM,43.7,29.3,57,29.92,10.0,SW,12.7,-,N/A,,Clear,220,2012-10-08 05:55:00
1:15 AM,43.3,29.7,59,29.92,10.0,SW,13.8,-,N/A,,Clear,230,2012-10-08 06:15:00
1:35 AM,43.5,30.0,59,29.92,10.0,SW,13.8,-,N/A,,Clear,230,2012-10-08 06:35:00
1:55 AM,43.7,30.7,60,29.92,10.0,SW,13.8,-,N/A,,Clear,230,2012-10-08 06:55:00
2:15 AM,43.9,31.1,61,29.92,10.0,SW,13.8,-,N/A,,Clear,230,2012-10-08 07:15:00
2:35 AM,43.7,31.3,62,29.91,10.0,SW,12.7,-,N/A,,Clear,230,2012-10-08 07:35:00
2:55 AM,43.7,31.1,61,29.91,10.0,SW,11.5,-,N/A,,Clear,230,2012-10-08 07:55:00
3:15 AM,43.5,31.1,62,29.90,10.0,SW,12.7,-,N/A,,Clear,230,2012-10-08 08:15:00
3:35 AM,43.2,31.1,62,29.89,10.0,SW,12.7,-,N/A,,Clear,220,2012-10-08 08:35:00
3:55 AM,43.3,30.9,62,29.89,10.0,SW,11.5,-,N/A,,Clear,230,2012-10-08 08:55:00
4:15 AM,43.0,30.9,62,29.89,10.0,SW,11.5,-,N/A,,Clear,220,2012-10-08 09:15:00
4:35 AM,43.0,30.4,61,29.89,10.0,SW,11.5,-,N/A,,Clear,220,2012-10-08 09:35:00
4:55 AM,43.2,30.2,60,29.88,10.0,SW,9.2,-,N/A,,Clear,220,2012-10-08 09:55:00
5:15 AM,43.9,29.8,58,29.88,10.0,SW,11.5,-,N/A,,Clear,220,2012-10-08 10:15:00
5:35 AM,45.0,29.5,55,29.88,10.0,SW,11.5,-,N/A,,Clear,230,2012-10-08 10:35:00
5:55 AM,45.5,29.3,53,29.88,10.0,SW,12.7,-,N/A,,Scattered Clouds,230,2012-10-08 10:55:00
6:15 AM,45.5,29.3,53,29.87,10.0,SW,11.5,-,N/A,,Mostly Cloudy,230,2012-10-08 11:15:00
6:35 AM,45.7,29.3,53,29.86,10.0,WSW,12.7,-,N/A,,Scattered Clouds,240,2012-10-08 11:35:00
6:55 AM,45.5,29.1,53,29.86,10.0,SW,10.4,-,N/A,,Clear,230,2012-10-08 11:55:00
7:15 AM,45.5,29.3,53,29.86,10.0,SW,10.4,-,N/A,,Clear,230,2012-10-08 12:15:00
7:35 AM,45.7,28.9,52,29.85,10.0,SW,11.5,-,N/A,,Scattered Clouds,230,2012-10-08 12:35:00
7:55 AM,45.7,28.9,52,29.85,10.0,SSW,11.5,-,N/A,,Scattered Clouds,210,2012-10-08 12:55:00
8:15 AM,46.0,28.8,51,29.85,10.0,SW,11.5,-,N/A,,Scattered Clouds,220,2012-10-08 13:15:00
8:35 AM,46.8,28.6,49,29.85,10.0,SW,12.7,-,N/A,,Scattered Clouds,220,2012-10-08 13:35:00
8:55 AM,48.2,28.8,47,29.85,10.0,SW,10.4,-,N/A,,Clear,230,2012-10-08 13:55:00
9:15 AM,48.6,28.4,46,29.85,10.0,SW,11.5,-,N/A,,Scattered Clouds,220,2012-10-08 14:15:00
9:35 AM,49.8,28.4,44,29.84,10.0,SW,12.7,-,N/A,,Scattered Clouds,230,2012-10-08 14:35:00
9:55 AM,52.3,27.9,39,29.84,10.0,SW,13.8,-,N/A,,Scattered Clouds,230,2012-10-08 14:55:00
10:15 AM,53.1,27.9,38,29.84,10.0,SW,12.7,-,N/A,,Scattered Clouds,230,2012-10-08 15:15:00
10:35 AM,54.7,28.6,37,29.84,10.0,SW,12.7,-,N/A,,Clear,220,2012-10-08 15:35:00
10:55 AM,57.2,28.6,34,29.83,10.0,SSW,16.1,-,N/A,,Clear,210,2012-10-08 15:55:00
11:15 AM,60.3,28.9,31,29.82,10.0,SW,15.0,20.7,N/A,,Clear,230,2012-10-08 16:15:00
11:35 AM,62.6,28.9,28,29.81,10.0,SSW,17.3,-,N/A,,Clear,210,2012-10-08 16:35:00
11:55 AM,65.1,28.2,25,29.81,10.0,SW,20.7,-,N/A,,Clear,230,2012-10-08 16:55:00
12:15 PM,65.8,27.7,24,29.80,10.0,SW,20.7,25.3,N/A,,Clear,220,2012-10-08 17:15:00
12:55 PM,69.8,25.5,19,29.78,10.0,SW,20.7,26.5,N/A,,Clear,230,2012-10-08 17:55:00
1:15 PM,70.9,26.1,19,29.77,10.0,SW,19.6,25.3,N/A,,Scattered Clouds,220,2012-10-08 18:15:00
1:35 PM,71.8,25.9,18,29.76,10.0,WSW,16.1,26.5,N/A,,Mostly Cloudy,240,2012-10-08 18:35:00
1:55 PM,73.0,26.2,18,29.74,10.0,SW,19.6,28.8,N/A,,Scattered Clouds,220,2012-10-08 18:55:00
2:15 PM,73.6,26.6,17,29.74,10.0,WSW,15.0,23.0,N/A,,Clear,240,2012-10-08 19:15:00
2:35 PM,74.1,27.3,18,29.74,10.0,WSW,15.0,20.7,N/A,,Scattered Clouds,240,2012-10-08 19:35:00
2:55 PM,75.2,28.9,18,29.73,10.0,WSW,13.8,20.7,N/A,,Scattered Clouds,250,2012-10-08 19:55:00
3:15 PM,74.1,28.6,19,29.73,10.0,West,12.7,21.9,N/A,,Scattered Clouds,260,2012-10-08 20:15:00
3:35 PM,73.4,28.4,19,29.72,10.0,WSW,15.0,19.6,N/A,,Mostly Cloudy,240,2012-10-08 20:35:00
3:55 PM,72.7,28.9,20,29.72,10.0,West,10.4,-,N/A,,Overcast,270,2012-10-08 20:55:00
4:15 PM,73.4,29.3,20,29.72,10.0,NW,5.8,-,N/A,,Overcast,310,2012-10-08 21:15:00
4:35 PM,72.5,29.5,20,29.71,10.0,NW,10.4,-,N/A,,Overcast,310,2012-10-08 21:35:00
4:55 PM,72.5,30.9,22,29.72,10.0,NW,10.4,-,N/A,,Overcast,310,2012-10-08 21:55:00
5:15 PM,71.1,33.1,25,29.73,10.0,NNW,11.5,-,N/A,,Overcast,330,2012-10-08 22:15:00
5:35 PM,69.6,35.2,28,29.73,10.0,NNW,9.2,-,N/A,Rain,Light Rain,330,2012-10-08 22:35:00
5:55 PM,70.0,35.1,28,29.73,10.0,NW,8.1,-,N/A,,Overcast,320,2012-10-08 22:55:00
6:15 PM,69.3,36.1,30,29.74,10.0,NNW,9.2,-,N/A,,Overcast,330,2012-10-08 23:15:00
6:35 PM,68.4,36.5,31,29.74,10.0,NNW,8.1,-,N/A,,Overcast,330,2012-10-08 23:35:00
6:55 PM,67.1,36.3,32,29.75,7.0,NNW,5.8,-,N/A,,Overcast,330,2012-10-08 23:55:00
7:35 PM,64.6,35.8,34,29.77,7.0,Calm,Calm,-,N/A,,Overcast,0,2012-10-09 00:35:00
7:55 PM,63.0,35.6,36,29.77,7.0,Calm,Calm,-,N/A,,Overcast,0,2012-10-09 00:55:00
8:15 PM,63.7,36.5,36,29.78,7.0,NNW,4.6,-,N/A,,Overcast,340,2012-10-09 01:15:00
8:35 PM,62.6,36.5,38,29.79,10.0,North,5.8,-,N/A,,Overcast,360,2012-10-09 01:35:00
8:55 PM,63.5,39.0,41,29.80,10.0,North,10.4,17.3,N/A,,Overcast,350,2012-10-09 01:55:00
9:15 PM,62.6,39.4,42,29.81,10.0,North,11.5,-,N/A,,Mostly Cloudy,360,2012-10-09 02:15:00
9:35 PM,61.7,40.1,45,29.81,10.0,North,10.4,-,N/A,,Mostly Cloudy,350,2012-10-09 02:35:00
9:55 PM,61.0,41.0,48,29.81,10.0,North,6.9,-,N/A,,Overcast,350,2012-10-09 02:55:00
10:15 PM,60.1,41.0,49,29.81,10.0,North,4.6,-,N/A,,Overcast,350,2012-10-09 03:15:00
10:55 PM,57.9,40.3,52,29.82,10.0,North,6.9,-,N/A,,Overcast,350,2012-10-09 03:55:00
11:15 PM,57.4,40.5,53,29.81,10.0,North,5.8,-,N/A,,Overcast,10,2012-10-09 04:15:00
11:35 PM,56.8,41.2,56,29.82,10.0,Calm,Calm,-,N/A,,Overcast,0,2012-10-09 04:35:00
11:55 PM,55.4,40.8,58,29.82,10.0,Calm,Calm,-,N/A,,Overcast,0,2012-10-09 04:55:00